|   |  | Asteroid 2011 WQ4
					
					
					
					
						
					
					
						
							(Preview) 
						
							
								Orbital elements:
2011 WQ4                                                 Earth MOID = 0.0018 AU
Epoch 2011 Aug. 27.0 TT = JDT 2455800.5                 MPC
M 316.83869              (2000.0)            P               Q
n   0.39973772     Peri.  228.82791     +0.07863698     -0.99689963
a   1.8250970      Node   216.66214     +0.91599507     +0.07332779
e   0.4746601      Incl.    0.26016     +0.39340724     +0.02853350
P   2.47           H   26.9           G...                        | Blobrana | 0 |  |  | 
		
			
			
				
				
					|   |  | Asteroid 2011 WP4
					
					
					
					
						
					
					
						
							(Preview) 
						
							
								Orbital elements:
2011 WP4                                                 Earth MOID = 0.0037 AU
Epoch 2011 Aug. 27.0 TT = JDT 2455800.5                 MPC
M 273.32273              (2000.0)            P               Q
n   0.62368301     Peri.  260.86741     -0.66398029     -0.74758145
a   1.3567300      Node   230.74905     +0.69384916     -0.60806223
e   0.4122466      Incl.    1.17499     +0.27875353     -0.26717466
P   1.58           H   26.7           G...                         | Blobrana | 0 |  |  | 
		
			
			
				
				
					|   |  | Asteroid 2011 WV2
					
					
					
					
						
					
					
						
							(Preview) 
						
							
								Orbital elements:
2011 WV2                                                 Earth MOID = 0.3536 AU
Epoch 2011 Aug. 27.0 TT = JDT 2455800.5                 MPC
M   1.01263              (2000.0)            P               Q
n   0.50622922     Peri.  119.91287     +0.94197453     +0.07744333
a   1.5592099      Node   237.52898     -0.14114026     +0.97420955
e   0.1888685      Incl.   22.77764     +0.30457087     +0.21193933
P   1.95           H   20.4           G   0... | Blobrana | 0 |  |  | 
		
			
			
				
				
					|   |  | Asteroid 2011 WU2
					
					
					
					
						
					
					
						
							(Preview) 
						
							
								Orbital elements:
2011 WU2                                                 Earth MOID = 0.1314 AU
Epoch 2011 Aug. 27.0 TT = JDT 2455800.5                 MPC
M 323.78948              (2000.0)            P               Q
n   0.78214903     Peri.  146.28453     +0.91891015     -0.39214025
a   1.1666566      Node   236.85988     +0.34969925     +0.86000021
e   0.0352888      Incl.    2.92857     +0.18252278     +0.32653584
P   1.26           H   24.9           G... | Blobrana | 0 |  |  | 
		
			
			
				
				
					|   |  | Asteroid 2011 WT2
					
					
					
					
						
					
					
						
							(Preview) 
						
							
								Orbital elements:
2011 WT2                                                 Earth MOID = 0.1676 AU
Epoch 2011 Nov. 15.0 TT = JDT 2455880.5                 MPC
M   0.13000              (2000.0)            P               Q
n   0.08483997     Peri.  174.81035     +0.79335684     -0.58372365
a   5.1294291      Node   222.49763     +0.54891809     +0.80866532
e   0.7740636      Incl.   14.81819     +0.26319927     +0.07298702
P  11.6            H   21.7           G   0... | Blobrana | 0 |  |  | 
		
			
			
				
				
					|   |  | Asteroid 2011 VP12
					
					
					
					
						
					
					
						
							(Preview) 
						
							
								Orbital elements:
2011 VP12                                                Earth MOID = 0.1082 AU
Epoch 2011 Nov. 15.0 TT = JDT 2455880.5                 MPC
M   1.31078              (2000.0)            P               Q
n   0.32974196     Peri.  159.67755     +0.78959952     -0.60038658
a   2.0750086      Node   237.86384     +0.54028267     +0.77816649
e   0.4745243      Incl.    8.60940     +0.29090761     +0.18437155
P   2.99           H   20.9           G   0... | Blobrana | 0 |  |  | 
		
			
			
				
				
					|   |  | Asteroid 2011 WR2
					
					
					
					
						
					
					
						
							(Preview) 
						
							
								Orbital elements:
2011 WR2                                                 Earth MOID = 0.0395 AU
Epoch 2011 Aug. 27.0 TT = JDT 2455800.5                 MPC
M 221.83780              (2000.0)            P               Q
n   0.87462429     Peri.  292.63334     -0.95358058     -0.24509045
a   1.0829000      Node   233.61672     +0.28585806     -0.91945225
e   0.3936574      Incl.   12.55266     -0.09470606     -0.30747069
P   1.13           H   25.3... | Blobrana | 1 |  |  | 
		
			
			
				
				
					|   |  | Asteroid 2011 WN2
					
					
					
					
						
					
					
						
							(Preview) 
						
							
								Orbital elements:
2011 WN2                                                 Earth MOID = 0.0202 AU
Epoch 2011 Aug. 27.0 TT = JDT 2455800.5                 MPC
M 331.55600              (2000.0)            P               Q
n   0.27034334     Peri.  208.44720     +0.15547736     -0.98497986
a   2.3687847      Node   232.70649     +0.92327468     +0.17193211
e   0.5858350      Incl.    5.41755     +0.35127007     -0.01593789
P   3.65           H   25.3           G... | Blobrana | 1 |  |  | 
		
			
			
				
				
					|   |  | Asteroid 2011 WQ2
					
					
					
					
						
					
					
						
							(Preview) 
						
							
								Orbital elements:
2011 WQ2                                                 Earth MOID = 0.0093 AU
Epoch 2011 Aug. 27.0 TT = JDT 2455800.5                 MPC
M 342.98471              (2000.0)            P               Q
n   0.27109333     Peri.  336.90773     +0.86509310     -0.49874720
a   2.3644139      Node    53.11851     +0.47002926     +0.76873112
e   0.5848339      Incl.    3.83706     +0.17517543     +0.40037943
P   3.64           H   26.1           G   0... | Blobrana | 1 |  |  | 
		
			
			
				
				
					|   |  | Asteroid 2011 WO2
					
					
					
					
						
					
					
						
							(Preview) 
						
							
								Orbital elements:
2011 WO2                                                 Earth MOID = 0.0089 AU
Epoch 2011 Aug. 27.0 TT = JDT 2455800.5                 MPC
M 348.20259              (2000.0)            P               Q
n   0.38292777     Peri.  100.83926     +0.95721468     +0.28842744
a   1.8781264      Node   242.40039     -0.27476299     +0.88045779
e   0.5650567      Incl.    1.51596     -0.09080394     +0.37630265
P   2.57           H   25.4           G... | Blobrana | 0 |  |  | 
		
			
			
				
				
					|   |  | Asteroid 2011 WM2
					
					
					
					
						
					
					
						
							(Preview) 
						
							
								Orbital elements:
2011 WM2                                                 Earth MOID = 0.1699 AU
Epoch 2011 Aug. 27.0 TT = JDT 2455800.5                 MPC
M 337.34276              (2000.0)            P               Q
n   0.51059735     Peri.  313.75342     +0.95730548     -0.17372074
a   1.5503045      Node    57.55104     +0.27210668     +0.81135248
e   0.2856593      Incl.   15.89090     -0.09759184     +0.55814716
P   1.93           H   20.2           G... | Blobrana | 0 |  |  | 
		
			
			
				
				
					|   |   | Asteroid 2011 WL2
					
					
					
					
						
					
					
						
							(Preview) 
						
							
								Orbital elements:
2011 WL2                                            PHA, Earth MOID = 0.0017 AU
Epoch 2011 Aug. 27.0 TT = JDT 2455800.5                 MPC
M   7.62483              (2000.0)            P               Q
n   0.88000863     Peri.   88.89289     +0.51090354     +0.84934297
a   1.0784783      Node   212.93236     -0.85331450     +0.48239048
e   0.2832761      Incl.   14.12193     -0.10407660     +0.21428005
P   1.12           H   20.... | Blobrana | 0 |  |  | 
		
			
			
				
				
					|   |  | Asteroid 2011 WK2
					
					
					
					
						
					
					
						
							(Preview) 
						
							
								Orbital elements:
2011 WK2                                                 Earth MOID = 0.2276 AU
Epoch 2011 Aug. 27.0 TT = JDT 2455800.5                 MPC
M 141.42218              (2000.0)            P               Q
n   0.71278904     Peri.  162.79771     -0.96212869     +0.19941944
a   1.2411627      Node    30.67087     -0.27259464     -0.70199436
e   0.0063211      Incl.   21.36676     -0.00074195     -0.68369277
P   1.38           H   21.1           G... | Blobrana | 0 |  |  | 
		
			
			
				
				
					|   |  | Asteroid 2011 WC
					
					
					
					
						
					
					
						
							(Preview) 
						
							
								Orbital elements:
2011 WC                                                  Earth MOID = 0.1379 AU
Epoch 2011 Aug. 27.0 TT = JDT 2455800.5                 MPC
M 250.29961              (2000.0)            P               Q
n   0.73777652     Peri.  244.92295     -0.35057333     -0.92911247
a   1.2129777      Node   226.13614     +0.90728660     -0.30577530
e   0.1092587      Incl.    9.39379     +0.23222697     -0.20796990
P   1.34           H   22.5           G   0... | Blobrana | 1 |  |  | 
		
			
			
				
				
					|   |   | Asteroid 2011 WA
					
					
					
					
						
					
					
						
							(Preview) 
						
							
								Orbital elements:
2011 WA                                             PHA, Earth MOID = 0.0499 AU
Epoch 2011 Aug. 27.0 TT = JDT 2455800.5                 MPC
M  32.71775              (2000.0)            P               Q
n   1.26933162     Peri.  206.25503     -0.25914978     +0.88029642
a   0.8447976      Node    51.55020     -0.77258620     +0.05797793
e   0.2864979      Incl.   30.49242     -0.57961363     -0.47086811
P   0.78           H   21....                                    | Blobrana | 0 |  |  |